Location: Ajisawe
(8.4333°N, 4.3833°E)
Time: 21:39:55
(UTC+00:00)

Vanguard 2 Rocket - Pass Details

Date: 22 April 2021
Orbit: 554 x 3326 km, 32.9° (Epoch: 16 May)

Event Time Altitude Azimuth Distance (km) Brightness Sun altitude
Rises 08:01:03 0° 212° (SSW) 3,994 9.9 35.9°
Reaches altitude 10° 08:03:35 10° 203° (SSW) 3,323 9.6 36.5°
Maximum altitude 08:11:42 39° 136° (SE) 2,569 10.1 38.5°
Drops below altitude 10° 08:25:08 10° 73° (ENE) 5,465 12.0 41.7°
Sets 08:30:37 0° 67° (ENE) 6,838 12.1 43.1°
